This demonstration page uses our WeatherBlox Daily Observations layout. Learn more.

Left ArrowRight Arrow

47.50024, -111.30081

Hourly Observations for November 29, 2022

Temp ( °F °C ) Dew Point ( °F °C ) Humidity (%) Winds ( mph kmh ) Pressure ( in mb ) Visibility ( mi km ) Precip ( " mm )
12:44 am 00:44 Cloudy 2 -16.7 -2 -18.9 83 83 NW 6 9 30.32 1027 10 16 0.00 0.00
12:53 am 00:53 Cloudy 3 -16.1 -1 -18.3 83 83 NW 5 7 30.18 1022 10 16 0.00 0.00
1:09 am 01:09 Cloudy 4 -15.6 -1 -18.3 80 80 NW 6 9 30.30 1026 10 16 0.00 0.00
1:53 am 01:53 Cloudy 3 -16.1 0 -17.8 87 87 WSW 3 6 30.19 1022 10 16 0.00 0.00
2:53 am 02:53 Cloudy 5 -15 1 -17.2 83 83 W 6 9 30.19 1022 10 16 0.00 0.00
3:53 am 03:53 Cloudy 5 -15 1 -17.2 83 83 W 7 11 30.20 1023 10 16 0.00 0.00
4:53 am 04:53 Cloudy with Light Snow 5 -15 2 -16.7 87 87 W 7 11 30.22 1023 8 13 0.01 0.13
5:53 am 05:53 Cloudy 3 -16.1 1 -17.2 91 91 W 5 7 30.23 1024 10 16 0.01 0.13
6:53 am 06:53 Cloudy with Light Snow 6 -14.4 3 -16.1 87 87 WNW 7 11 30.24 1024 3 5 0.01 0.13
7:10 am 07:10 Cloudy with Light Snow 6 -14.4 3 -16.1 87 87 WNW 7 11 30.34 1027 2 3 0.01 0.13
7:21 am 07:21 Cloudy with Light Snow 6 -14.4 3 -16.1 87 87 WNW 7 11 30.34 1027 1 2 0.01 0.13
7:41 am 07:41 Cloudy with Light Snow 6 -14.4 3 -16.1 87 87 WNW 8 13 30.35 1028 3 4 0.01 0.25
7:53 am 07:53 Cloudy with Light Snow 6 -14.4 4 -15.6 91 91 W 7 11 30.26 1025 3 5 0.01 0.25
8:05 am 08:05 Cloudy with Light Snow 6 -14.4 4 -15.6 91 91 W 6 9 30.35 1028 2 3 0.01 0.13
8:17 am 08:17 Cloudy with Light Snow 6 -14.4 4 -15.6 91 91 WNW 6 9 30.35 1028 3 4 0.01 0.13
8:28 am 08:28 Cloudy with Light Snow 6 -14.4 4 -15.6 91 91 WNW 6 9 30.36 1028 3 4 0.01 0.13
8:46 am 08:46 Cloudy with Light Snow 6 -14.4 4 -15.6 91 91 WNW 6 9 30.36 1028 2 2 0.01 0.13
8:53 am 08:53 Cloudy with Light Snow 6 -14.4 4 -15.6 91 91 NW 6 9 30.28 1026 2 3 0.01 0.13
9:06 am 09:06 Cloudy with Light Snow 6 -14.4 3 -16.1 87 87 WNW 6 9 30.37 1028 2 3 0.01 0.13
9:15 am 09:15 Cloudy with Light Snow 6 -14.4 3 -16.1 87 87 WNW 6 9 30.37 1028 2 3 0.01 0.13
9:39 am 09:39 Cloudy with Mist and Fog 6 -14.4 3 -16.1 87 87 W 5 7 30.37 1028 6 10 0.01 0.13
9:53 am 09:53 Cloudy 7 -13.9 3 -16.1 83 83 W 5 7 30.30 1026 9 14 0.01 0.13
10:07 am 10:07 Cloudy with Mist and Fog 7 -13.9 3 -16.1 83 83 W 5 7 30.37 1029 6 10 0.00 0.00
10:30 am 10:30 Partly Cloudy 8 -13.3 3 -16.1 79 79 NW 5 7 30.36 1028 8 13 0.00 0.00
10:53 am 10:53 Sunny 9 -12.8 3 -16.1 76 76 WNW 5 7 30.29 1026 10 16 0.00 0.00
11:53 am 11:53 Partly Cloudy 7 -13.9 2 -16.7 79 79 W 5 7 30.29 1026 10 16 0.00 0.00
12:46 pm 12:46 Mostly Cloudy 9 -12.8 2 -16.7 72 72 WNW 6 9 30.34 1028 10 16 0.00 0.00
12:53 pm 12:53 Partly Cloudy 10 -12.2 2 -16.7 69 69 W 7 11 30.28 1025 10 16 0.00 0.00
1:53 pm 13:53 Sunny 9 -12.8 1 -17.2 69 69 W 8 13 30.28 1025 10 16 0.00 0.00
2:53 pm 14:53 Sunny 10 -12.2 -1 -18.3 60 60 Calm 30.27 1025 10 16 0.00 0.00
3:53 pm 15:53 Sunny 8 -13.3 -2 -18.9 63 63 Calm 30.27 1025 10 16 0.00 0.00
4:53 pm 16:53 Clear 5 -15 -2 -18.9 72 72 Calm 30.29 1026 10 16 0.00 0.00
5:53 pm 17:53 Clear 4 -15.6 -1 -18.3 80 80 ESE 7 11 30.30 1026 10 16 0.00 0.00
6:53 pm 18:53 Clear 2 -16.7 -3 -19.4 79 79 SE 9 15 30.29 1026 10 16 0.00 0.00
7:53 pm 19:53 Clear 2 -16.7 -3 -19.4 79 79 SE 7 11 30.28 1026 10 16 0.00 0.00
8:53 pm 20:53 Clear 1 -17.2 -5 -20.6 75 75 SE 7 11 30.27 1025 10 16 0.00 0.00
9:53 pm 21:53 Clear 0 -17.8 -5 -20.6 79 79 E 5 7 30.27 1025 10 16 0.00 0.00
10:53 pm 22:53 Clear 1 -17.2 -4 -20 79 79 E 3 6 30.26 1025 10 16 0.00 0.00
11:53 pm 23:53 Clear -1 -18.3 -5 -20.6 82 82 ESE 7 11 30.24 1024 10 16 0.00 0.00

Powered by AerisWeather